[[{"header":{"parameterUnit":"m.s-1","parameterCategory":1,"la1":30.2991,"la2":30.254,"lo1":-89.0895,"lo2":-89.0444,"dy":0.0017,"dx":0.0017,"nx":28,"ny":28,"refTime":"2025-08-06T03:00:00:Z","depth":0,"parameterNumber":2,"parameterNumberName":"U-component_of_WINDS"},"data":[0,0,0,0,0,0,0,0,0,0,0,0,0,0,0,0,0,0,0,0,0,0,0,0,0,0,0,0,0,0,0,0,0,0,0,0,0,0,0,0,0,0,0,0,0,0,0,0,0,0,0,0,0,0,0,0,0,0,2.1033,2.1034,0,2.1115,2.1115,2.1116,2.1112,2.111,2.1109,2.1108,2.119,2.1193,2.1197,0,0,0,0,0,0,0,0,0,0,0,0,0,2.0872,2.0875,2.1033,2.1034,2.1035,2.1114,2.1116,2.1117,2.1112,2.111,2.1109,2.1107,2.1189,2.1193,2.1197,0,0,0,0,0,0,0,0,0,0,0,0,0,2.0946,2.0876,2.1033,2.1042,2.1044,2.1114,2.1116,2.1117,2.1112,2.111,2.1108,2.1107,2.1188,2.1193,2.1197,2.1263,0,0,2.1213,2.1215,0,0,0,0,0,0,0,0,2.0942,2.0952,2.104,2.1042,2.1044,2.1101,2.1089,2.1166,2.1112,2.1086,2.1108,2.1106,2.1162,2.1169,2.1188,2.1267,2.1271,2.1213,2.1216,2.1218,2.122,0,0,0,0,0,0,0,2.0937,2.0949,2.1065,2.1041,2.1044,2.1042,2.105,2.1103,2.1133,2.1088,2.1088,2.1098,2.1163,2.1183,2.119,2.1272,2.1213,2.1217,2.122,2.1222,2.1407,2.1409,0,0,0,0,0,0,2.093,2.0944,2.1063,2.1068,2.0988,2.1046,2.1056,2.1084,2.1132,2.1138,2.1099,2.1097,2.1176,2.1184,2.1193,2.1272,2.1218,2.1223,2.1226,2.1405,2.1408,2.141,0,0,0,0,0,0,2.0926,2.094,2.1059,2.1006,2.1021,2.1051,2.1083,2.1087,2.1108,2.1141,2.1146,2.1115,2.1175,2.1186,2.1245,2.1274,2.1225,2.1229,2.1403,2.1406,2.1409,2.1431,0,0,0,0,0,0,2.0922,2.0939,2.0965,2.1007,2.1024,2.1112,2.1085,2.109,2.1116,2.1114,2.1157,2.1162,2.1174,2.1238,2.125,2.128,2.1233,2.14,2.1404,2.1408,2.1427,2.1434,2.1439,0,0,0,0,0,2.0916,2.0968,2.0967,2.0981,2.1057,2.1113,2.1123,2.1136,2.1119,2.1144,2.1165,2.1161,2.1269,2.1244,2.1258,2.129,2.1399,2.1403,2.1407,2.1425,2.1433,2.1439,0,0,0,0,0,0,2.0929,2.0974,2.0972,2.104,2.1073,2.1112,2.1145,2.1144,2.1183,2.1179,2.1194,2.1203,2.1263,2.1282,2.1254,2.1355,2.1332,2.1339,2.134,2.1348,2.1354,2.1347,2.1237,0,0,0,0,0,2.094,2.0983,2.1019,2.1075,2.1092,2.1116,2.1141,2.1148,2.1182,2.1196,2.1222,2.1255,2.1296,2.1323,2.1363,2.143,2.1439,2.1459,2.1465,2.147,2.1476,2.1511,2.1519,2.1424,2.1424,2.1424,0,0,2.0963,2.0993,2.1019,2.1079,2.1105,2.1147,2.1127,2.1174,2.1205,2.1203,2.1261,2.128,2.1318,2.1381,2.1411,2.14,2.1504,2.1475,2.1479,2.1482,2.1516,2.1525,2.1533,2.1427,2.1427,2.1426,0,0,2.1026,2.1053,2.1102,2.1129,2.1169,2.1184,2.1196,2.1235,2.1248,2.1306,2.1305,2.1342,2.1414,2.144,2.1463,2.1535,2.1531,2.1548,2.1579,2.1613,2.162,2.1627,2.1651,2.1659,2.1553,2.1554,2.1554,0,2.1049,2.1114,2.1127,2.1174,2.1199,2.1199,2.1248,2.1273,2.1324,2.1341,2.1328,2.1417,2.1443,2.1511,2.1528,2.1548,2.156,2.1542,2.1618,2.1625,2.1631,2.1654,2.1663,2.1555,2.1555,2.1555,2.1555,0,2.114,2.1185,2.1219,2.1268,2.1298,2.1345,2.1364,2.1393,2.1397,2.1413,2.1471,2.1502,2.1547,2.1564,2.1569,2.1633,2.1625,2.1615,2.1592,2.1642,2.1663,2.1673,2.1557,2.1557,2.1556,2.1556,0,0,2.1214,2.1269,2.1281,2.1302,2.1346,2.138,2.1427,2.1471,2.1495,2.153,2.1568,2.1628,2.1619,2.1645,2.1652,2.1682,2.1735,2.1669,2.167,2.1678,2.1805,2.1811,2.1821,2.1733,2.1735,2.1736,2.1801,0,2.128,2.1363,2.1376,2.1449,2.1489,2.1489,2.1529,2.156,2.1576,2.1612,2.163,2.1672,2.1657,2.1673,2.1702,2.1722,2.176,2.1718,2.1768,2.1769,2.1757,2.1833,2.184,2.19,2.181,2.1812,2.1813,0,2.1369,2.1406,2.1483,2.1519,2.1536,2.1573,2.1613,2.1648,2.1682,2.1692,2.172,2.1724,2.1771,2.1746,2.181,2.1781,2.1802,2.1815,2.1818,2.1822,2.1793,2.1838,2.192,2.1928,2.1826,2.1825,2.1824,0,2.1414,2.1482,2.1537,2.1555,2.1599,2.1624,2.1644,2.1676,2.1701,2.1737,2.1753,2.1794,2.1816,2.1847,2.1861,2.1842,2.1924,2.19,2.1932,2.1931,2.1948,2.1947,2.2033,2.1964,2.1964,2.1964,2.1964,0,2.1486,2.1533,2.1557,2.159,2.1642,2.1655,2.1706,2.1724,2.1753,2.1789,2.1791,2.1825,2.1842,2.1878,2.1889,2.194,2.195,2.1958,2.196,2.1957,2.1956,2.1971,2.1966,2.1966,2.1966,2.1965,2.1965,0,2.1544,2.1563,2.1622,2.1658,2.1668,2.1705,2.1735,2.1767,2.1783,2.1828,2.184,2.1864,2.1906,2.1924,2.1976,2.1983,2.2041,2.204,2.2029,2.2029,2.2059,2.2056,2.2157,2.217,2.2094,2.2094,2.2095,0,2.1589,2.1625,2.1664,2.1689,2.1709,2.1748,2.1774,2.1788,2.1814,2.1855,2.1881,2.1923,2.1958,2.2025,2.2047,2.2086,2.2086,2.2119,2.2092,2.2087,2.2085,2.2082,2.2084,2.2123,2.2124,2.2125,2.2125,0,2.1665,2.1672,2.1709,2.1749,2.1779,2.1811,2.1842,2.1862,2.1881,2.191,2.1953,2.198,2.2032,2.2073,2.2113,2.2133,2.2132,2.2134,2.2143,2.2139,2.2131,2.2134,2.2041,2.2131,2.213,2.213,2.213,2.2129,2.1717,2.1748,2.178,2.1821,2.1846,2.1874,2.1905,2.1924,2.196,2.2004,2.201,2.2056,2.2087,2.2141,2.2162,2.2197,2.2188,2.2202,2.2205,2.2208,2.2209,2.2126,2.2205,2.2204,2.2204,2.2204,2.2204,0,2.1792,2.1813,2.185,2.1893,2.1924,2.1921,2.1955,2.1981,2.2021,2.205,2.2084,2.2132,2.2172,2.2197,2.2236,2.226,2.226,2.2269,2.2267,2.2271,2.2215,2.2203,2.2268,2.2268,2.2268,2.2268,2.2268,2.2268,2.1835,2.1886,2.1897,2.196,2.198,2.2025,2.2044,2.207,2.2093,2.2147,2.218,2.2196,2.2223,2.2264,2.23,2.2306,2.232,2.2329,2.2335,2.2282,2.2275,2.2269,2.2257,2.2333,2.2333,2.2387,2.2388,2.2388]},{"header":{"parameterUnit":"m.s-1","parameterCategory":1,"la1":30.2991,"la2":30.254,"lo1":-89.0895,"lo2":-89.0444,"dy":0.0017,"dx":0.0017,"nx":28,"ny":28,"refTime":"2025-08-06T03:00:00:Z","depth":0,"parameterNumber":3,"parameterNumberName":"V-component_of_WINDS"},"data":[0,0,0,0,0,0,0,0,0,0,0,0,0,0,0,0,0,0,0,0,0,0,0,0,0,0,0,0,0,0,0,0,0,0,0,0,0,0,0,0,0,0,0,0,0,0,0,0,0,0,0,0,0,0,0,0,0,0,-1.6942,-1.6942,0,-1.6995,-1.6996,-1.6997,-1.7006,-1.7005,-1.7005,-1.7004,-1.7058,-1.706,-1.7061,0,0,0,0,0,0,0,0,0,0,0,0,0,-1.6846,-1.6848,-1.6942,-1.6943,-1.6943,-1.6995,-1.6996,-1.6997,-1.7006,-1.7005,-1.7005,-1.7004,-1.7057,-1.7059,-1.7062,0,0,0,0,0,0,0,0,0,0,0,0,0,-1.6892,-1.6848,-1.6942,-1.6954,-1.6956,-1.6995,-1.6996,-1.6997,-1.7006,-1.7005,-1.7005,-1.7004,-1.7056,-1.7059,-1.7062,-1.7092,0,0,-1.707,-1.7071,0,0,0,0,0,0,0,0,-1.689,-1.6896,-1.6952,-1.6953,-1.6955,-1.6993,-1.6982,-1.7029,-1.7006,-1.6987,-1.7004,-1.7004,-1.7037,-1.7041,-1.7053,-1.7095,-1.7097,-1.7071,-1.7072,-1.7073,-1.7074,0,0,0,0,0,0,0,-1.6887,-1.6894,-1.6963,-1.6952,-1.6955,-1.6956,-1.6962,-1.6991,-1.7015,-1.6988,-1.6989,-1.6995,-1.7038,-1.705,-1.7054,-1.7098,-1.707,-1.7073,-1.7075,-1.7076,-1.7168,-1.7168,0,0,0,0,0,0,-1.6881,-1.6891,-1.6961,-1.6965,-1.692,-1.6959,-1.6965,-1.6982,-1.7015,-1.7019,-1.6996,-1.6996,-1.7045,-1.7051,-1.7056,-1.7093,-1.7073,-1.7076,-1.7078,-1.7167,-1.7168,-1.7169,0,0,0,0,0,0,-1.6879,-1.6887,-1.6959,-1.6928,-1.6937,-1.6961,-1.6979,-1.6983,-1.6995,-1.702,-1.7025,-1.7004,-1.7045,-1.7052,-1.7083,-1.7095,-1.7077,-1.708,-1.7166,-1.7167,-1.7168,-1.7169,0,0,0,0,0,0,-1.6876,-1.6887,-1.6899,-1.6928,-1.6939,-1.6986,-1.698,-1.6985,-1.7,-1.7,-1.7029,-1.7033,-1.7045,-1.7079,-1.7086,-1.7099,-1.7082,-1.7165,-1.7167,-1.7168,-1.7168,-1.717,-1.7171,0,0,0,0,0,-1.6873,-1.6897,-1.6899,-1.6908,-1.6955,-1.6987,-1.6993,-1.7006,-1.7001,-1.7013,-1.7029,-1.7032,-1.7093,-1.7082,-1.709,-1.7104,-1.7164,-1.7166,-1.7168,-1.7167,-1.7169,-1.7171,0,0,0,0,0,0,-1.6867,-1.6901,-1.6904,-1.6938,-1.696,-1.6988,-1.7004,-1.7009,-1.7032,-1.7031,-1.7046,-1.7053,-1.7083,-1.7097,-1.7084,-1.7135,-1.7128,-1.7132,-1.7125,-1.7127,-1.7129,-1.7125,-1.7084,0,0,0,0,0,-1.687,-1.6894,-1.6922,-1.6949,-1.696,-1.698,-1.6994,-1.7003,-1.7026,-1.7035,-1.7053,-1.7075,-1.7098,-1.7114,-1.7137,-1.717,-1.7176,-1.7183,-1.7185,-1.7187,-1.7189,-1.7207,-1.721,-1.7175,-1.7175,-1.7175,0,0,-1.6876,-1.6897,-1.6911,-1.6948,-1.6966,-1.6989,-1.6987,-1.7013,-1.703,-1.7038,-1.7069,-1.7083,-1.7108,-1.714,-1.7155,-1.7153,-1.72,-1.7189,-1.719,-1.7191,-1.7209,-1.7212,-1.7215,-1.7176,-1.7176,-1.7175,0,0,-1.6899,-1.6917,-1.6942,-1.696,-1.6987,-1.7,-1.7006,-1.7034,-1.7044,-1.7075,-1.7082,-1.7103,-1.7144,-1.7161,-1.7175,-1.7205,-1.7208,-1.7212,-1.7222,-1.7239,-1.7241,-1.7244,-1.7254,-1.7257,-1.7215,-1.7215,-1.7215,0,-1.6902,-1.6938,-1.6954,-1.6979,-1.6994,-1.7004,-1.7028,-1.7045,-1.7078,-1.7088,-1.7085,-1.7137,-1.7154,-1.719,-1.7197,-1.7209,-1.7215,-1.7208,-1.724,-1.7243,-1.7245,-1.7255,-1.7258,-1.7215,-1.7215,-1.7215,-1.7215,0,-1.6941,-1.6966,-1.6983,-1.7015,-1.7033,-1.7057,-1.7076,-1.7092,-1.7099,-1.7113,-1.7144,-1.7166,-1.7193,-1.7203,-1.721,-1.724,-1.7237,-1.7237,-1.723,-1.7249,-1.7257,-1.7261,-1.7215,-1.7215,-1.7215,-1.7215,0,0,-1.6961,-1.7001,-1.7007,-1.7021,-1.7052,-1.7071,-1.7096,-1.7124,-1.7137,-1.716,-1.718,-1.7215,-1.7215,-1.7231,-1.7241,-1.7256,-1.7277,-1.7254,-1.7254,-1.7256,-1.731,-1.7309,-1.7313,-1.728,-1.7281,-1.7281,-1.7308,0,-1.6986,-1.7031,-1.7045,-1.7083,-1.7106,-1.7115,-1.7137,-1.7158,-1.7171,-1.7192,-1.7207,-1.7231,-1.723,-1.7239,-1.7255,-1.7271,-1.7288,-1.7269,-1.7298,-1.7299,-1.7291,-1.7318,-1.7318,-1.7341,-1.7311,-1.7312,-1.7312,0,-1.7021,-1.7045,-1.7084,-1.7112,-1.7122,-1.7141,-1.7168,-1.7188,-1.7212,-1.7221,-1.7239,-1.7247,-1.7273,-1.7266,-1.7301,-1.7289,-1.7302,-1.7311,-1.7313,-1.7315,-1.7306,-1.732,-1.7349,-1.7352,-1.7318,-1.7318,-1.7317,0,-1.703,-1.7072,-1.7101,-1.7113,-1.7146,-1.7159,-1.7174,-1.7197,-1.7213,-1.7236,-1.7246,-1.7271,-1.7285,-1.7305,-1.732,-1.7313,-1.7354,-1.7348,-1.7361,-1.736,-1.7368,-1.7367,-1.7398,-1.7378,-1.7378,-1.7378,-1.7378,0,-1.7056,-1.708,-1.7105,-1.7123,-1.715,-1.7166,-1.7192,-1.7207,-1.7227,-1.7248,-1.7258,-1.7276,-1.7296,-1.7317,-1.7329,-1.7356,-1.7362,-1.737,-1.7372,-1.7368,-1.7367,-1.7376,-1.7374,-1.7379,-1.7379,-1.7378,-1.7378,0,-1.7071,-1.7089,-1.7121,-1.715,-1.7157,-1.7176,-1.72,-1.7217,-1.7232,-1.7257,-1.7264,-1.7287,-1.7312,-1.7329,-1.7362,-1.737,-1.7399,-1.7402,-1.7391,-1.7392,-1.7404,-1.7402,-1.7441,-1.7447,-1.7423,-1.7424,-1.7424,0,-1.7085,-1.7104,-1.7135,-1.7149,-1.7164,-1.7187,-1.7203,-1.722,-1.7236,-1.7265,-1.7279,-1.7305,-1.7327,-1.7367,-1.7386,-1.7411,-1.7414,-1.7426,-1.7417,-1.7413,-1.7413,-1.7411,-1.7413,-1.7427,-1.7427,-1.7427,-1.7427,0,-1.711,-1.7118,-1.7141,-1.7167,-1.7186,-1.7207,-1.7228,-1.724,-1.726,-1.7278,-1.7304,-1.7321,-1.7355,-1.738,-1.7407,-1.7422,-1.7427,-1.743,-1.7434,-1.7429,-1.7422,-1.7425,-1.7393,-1.7428,-1.7428,-1.7428,-1.7428,-1.7428,-1.7124,-1.7141,-1.7165,-1.719,-1.7208,-1.7228,-1.7245,-1.7262,-1.7284,-1.7313,-1.7322,-1.7349,-1.7372,-1.7409,-1.7424,-1.7445,-1.7444,-1.745,-1.7452,-1.7453,-1.7452,-1.7419,-1.745,-1.745,-1.745,-1.745,-1.745,0,-1.7148,-1.7164,-1.7187,-1.7217,-1.7236,-1.7241,-1.7265,-1.7281,-1.7305,-1.7326,-1.7348,-1.7378,-1.7403,-1.7424,-1.745,-1.7463,-1.7466,-1.7469,-1.7468,-1.7471,-1.7452,-1.7445,-1.7466,-1.7466,-1.7466,-1.7466,-1.7466,-1.7466,-1.7163,-1.7191,-1.7202,-1.7239,-1.7255,-1.7282,-1.7295,-1.7313,-1.733,-1.7363,-1.7384,-1.7398,-1.7419,-1.7447,-1.747,-1.7475,-1.7484,-1.7486,-1.7492,-1.7474,-1.7472,-1.747,-1.7464,-1.7488,-1.7488,-1.7509,-1.7509,-1.7509]}]]